Regional Weather Roundup
Issued by NWS Portland, ME

Current Version | Previous Version | Text Only | Print | Product List | Glossary On
Versions: 1 2 3 4 5 6 7 8 9 10 11 12 13 14 15 16 17 18 19 20 21 22 23 24 25 26 27 28 29 30 31 32 33 34 35 36 37 38 39 40 41 42 43 44 45 46 47 48 49 50
000 ASUS41 KGYX 010110 RWRGYX WEATHER ROUNDUP FOR MAINE AND NEW HAMPSHIRE NATIONAL WEATHER SERVICE GRAY ME 900 PM EDT THU JUL 31 2014 MEZ002-005-006-010-012-015-018-020-021-024-026-027-029-010200- MAINE CITY SKY/WX TMP DP RH WIND PRES REMARKS PORTLAND PTCLDY 66 60 81 S5 30.12R SANFORD PTCLDY 63 59 88 SW3 30.13R BAR HARBOR PTCLDY 63 61 94 CALM 30.16R WISCASSET MOCLDY 66 61 84 CALM 30.15R ROCKLAND CLEAR 64 63 94 CALM 30.14R FRYEBURG CLEAR 62 60 93 CALM 30.13R LEWISTONAUBURN CLEAR 63 59 88 CALM 30.12R AUGUSTA PTCLDY 66 60 81 S5 30.14R WATERVILLE PTCLDY 66 59 77 S3 30.10R BANGOR MOCLDY 67 60 78 S9 30.15R GREENVILLE N/A 59 57 93 CALM 30.13R MILLINOCKET MOCLDY 63 60 90 CALM 30.13R HOULTON MOCLDY 69 53 56 S8 30.11R PRESQUE ISLE CLOUDY 64 55 72 SE3 30.10S FRENCHVILLE LGT RAIN 58 57 97 CALM 30.09S CARIBOU LGT RAIN 62 59 90 SE3 30.09R $$ NHZ002-005-008-009-011-012-014-010200- NEW HAMPSHIRE CITY SKY/WX TMP DP RH WIND PRES REMARKS PORTSMOUTH MOCLDY 69 65 86 CALM 30.12R ROCHESTER MOCLDY 66 64 93 CALM 30.13R NASHUA MOCLDY 71 62 73 CALM 30.14R MANCHESTER MOCLDY 67 64 90 SE5 30.11R CONCORD RAIN 65 64 97 S5 30.14R FOG LACONIA N/A 64 61 88 CALM 30.12R PLYMOUTH FAIR 61 58 91 CALM 30.12R BERLIN MOCLDY 61 59 93 E3 30.14R FOG WHITEFIELD FAIR 60 58 92 CALM 30.13R JAFFREY MOCLDY 64 62 93 CALM 30.17R LEBANON FAIR 62 58 86 S3 30.11R MT WASHINGTON FOG 45 45 100 W28 N/A VSB 0 $$ VTZ005-007-008-010200- VERMONT CITY SKY/WX TMP DP RH WIND PRES REMARKS ST JOHNSBURY N/A 62 59 90 MISG 30.10R MONTPELIER FAIR 60 56 86 SW3 30.15R BURLINGTON FAIR 66 61 84 SE3 30.07R $$ MAZ007-012-024-CTZ003-RIZ002-NYZ038-NYZ072-010200- SOUTHERN NEW ENGLAND AND NY CITY SKY/WX TMP DP RH WIND PRES REMARKS BOSTON PTCLDY 71 57 61 S13 30.13R WORCESTER CLEAR 69 58 67 SW10 30.16R NANTUCKET PTCLDY 66 63 90 S7 30.18R PROVIDENCE FAIR 70 62 76 S7 30.17R HARTFORD MOCLDY 75 58 55 S10 30.11R ALBANY FAIR 69 64 84 CALM 30.10R NEW YORK CITY MOCLDY 75 65 70 S10 30.12R $$ ANZ081-ANZ082-ANZ150-NHZ014-MEZ023>029-010200- COASTAL MARINE OBSERVATIONS STATION/POSITION TIME TEMP WIND PRES WAVE AIR SEA DIR/SP/G HT/PER (UTC) (F) (DEG/KT/KT) (MB) (FT/S) MOUNT DESERT ROC 0100 60 N/A MATINICUS ROCK 0000 160/ 12/ 13 1020.1R PORTLAND WX BUOY 0100 67 64 180/ 14/ 17 1019.6R 3/ 9 WELLS 0100 65 62 140/ 1/ 2 1019.1R ISLE OF SHOALS 0000 69 190/ 20/ 21 1018.4R JEFFREYS LEDGE 0100 65 N/A 4/ 8 CASHES LEDGE BUO 0100 69 67 180/ 12/ 14 1020.5R 4/ 8 $$ .............KEY.............. WCI - WIND CHILL TC - TEMPERATURE IN CELSIUS VSB - VISIBILITY IN MILES HX - HEAT INDEX FAIR- INDICATES FEW OR NO CLOUDS BELOW 12,000 FT, WITH NO SIGNIFICANT WEATHER AND/OR OBSTRUCTIONS TO VISIBILITY.

USA.gov is the U.S. government's official web portal to all federal, state and local government web resources and services.